Temperature
21 21 21 20 20 20 20 19 19 19 18 18 18 17 17 16 16 16 16 16 15 15 15 15 15 15 15 14 14 14 14 15 15 15 15 15 15 15 15 15 15 16 16
21 21 21 20 20 20 20 19 19 19 18 18 18 17 17 16 16 16 16 15 15 15 15 15 15 14 14 14 14 14 14 14 14 14 15 15 15 15 15 15 15 15 15
21 21 20 20 20 20 20 19 19 19 18 18 18 17 17 17 16 16 16 15 15 15 15 15 14 14 14 14 14 14 14 14 14 14 14 14 14 15 15 15 15 15 15
21 21 20 20 20 20 20 19 19 19 18 18 18 17 17 17 16 16 16 15 15 15 15 15 14 14 14 14 14 14 14 14 14 14 14 14 14 14 14 15 15 15 15
20 20 20 20 20 20 20 19 19 19 18 18 18 17 17 17 16 16 16 16 15 15 15 15 14 14 14 14 14 14 14 14 14 14 14 14 14 14 14 14 15 15 15
20 20 20 20 20 20 19 19 19 19 18 18 18 17 17 17 17 16 16 16 15 15 15 15 15 14 14 14 14 14 14 14 14 14 14 14 14 14 14 14 14 14 15
20 20 20 20 20 19 19 19 19 19 18 18 18 17 17 17 17 16 16 16 16 15 15 15 15 14 14 14 14 14 14 14 14 14 14 14 14 14 14 14 14 14 14
20 20 20 20 20 19 19 19 19 18 18 18 18 17 17 17 17 16 16 16 16 15 15 15 15 15 14 14 14 14 14 13 14 14 14 14 14 14 14 14 14 14 14
20 20 20 20 19 19 19 19 19 18 18 18 18 17 17 17 17 16 16 16 16 15 15 15 15 15 14 14 14 14 14 14 14 13 13 14 14 14 14 14 14 14 14
19 19 19 19 19 19 19 19 18 18 18 18 17 17 17 17 17 16 16 16 16 15 15 15 15 15 14 14 14 14 14 14 14 13 13 13 14 14 14 14 14 14 14
19 19 19 19 19 19 19 18 18 18 18 17 17 17 17 17 16 16 16 16 16 15 15 15 15 15 14 14 14 14 14 14 14 14 14 13 13 13 14 14 14 14 14
19 19 19 19 19 19 18 18 18 18 18 17 17 17 17 16 16 16 16 16 16 15 15 15 15 15 15 14 14 14 14 14 14 14 14 13 13 13 13 14 14 14 14
19 18 18 18 18 18 18 18 18 17 17 17 17 17 17 16 16 16 16 16 15 15 15 15 15 15 14 14 14 14 14 14 14 14 14 14 13 14 13 13 13 14 13
18 18 18 18 18 18 18 17 17 17 17 17 17 16 16 16 16 16 16 15 15 15 15 15 15 15 14 14 14 14 14 14 14 14 14 14 14 14 13 13 13 13 13
18 18 18 18 18 18 17 17 17 17 17 16 16 16 16 16 15 15 15 15 15 15 15 15 14 14 14 14 14 14 14 14 14 14 14 14 13 13 13 13 13 13 13
17 17 17 17 17 17 17 17 17 17 16 16 16 16 16 15 15 15 15 15 15 14 14 14 14 14 14 14 14 14 14 13 13 13 13 13 13 13 13 13 13 13 13
17 17 17 17 17 17 17 17 17 16 16 16 16 15 15 15 15 15 15 14 14 14 14 14 14 14 13 13 13 13 13 13 13 13 13 13 13 13 13 13 13 13 13
18 17 17 17 17 17 17 17 16 16 16 16 15 15 15 15 14 14 14 14 14 14 13 13 13 13 13 13 13 13 13 13 13 13 12 12 12 12 12 13 13 13 13
18 18 17 17 17 17 16 16 16 16 15 15 15 15 14 14 14 14 14 13 13 13 13 13 13 13 13 12 12 12 12 12 12 12 12 12 12 12 12 12 12 12 12
18 17 17 17 16 16 16 16 16 15 15 15 14 14 14 14 14 13 13 13 13 13 12 12 12 12 12 12 12 12 12 12 12 12 12 12 11 11 11 11 11 11 12
17 17 17 16 16 16 16 15 15 15 14 14 14 14 14 13 13 13 13 12 12 12 12 12 12 12 12 12 11 11 11 11 11 11 11 11 11 11 11 11 11 11 11
17 17 16 16 15 15 15 15 15 14 14 14 14 13 13 13 13 12 12 12 12 12 12 11 11 11 11 11 11 11 11 10 10 11 11 11 11 11 11 11 11 11 11
17 16 16 15 15 15 15 14 14 14 14 13 13 13 13 12 12 12 12 12 11 11 11 11 11 11 11 10 10 10 10 10 10 10 10 10 10 10 10 10 10 10 10
16 16 15 15 15 14 14 14 14 13 13 13 13 12 12 12 12 12 11 11 11 10 10 10 10 10 10 10 10 10 10 10 10 10 10 10 10 10 10 10 10 10 10
16 15 15 15 14 14 14 13 13 13 13 13 12 12 12 12 11 11 11 11 10 10 10 10 9 9 9 9 9 9 9 9 9 9 9 9 9 9 9 9 10 10 9
15 15 14 14 14 13 13 13 13 12 12 12 12 12 11 11 11 11 11 10 10 10 10 9 9 9 9 9 9 9 9 9 9 9 9 9 9 9 9 9 9 9 9
Wind_Speed
6 7 9 9 8 8 8 8 8 6 5 4 3 3 2 1 1 1 3 4 4 5 4 3 3 3 3 3 3 2 4 3 3 3 4 4 4 4 3 2 2 2 2
6 6 7 8 8 8 8 8 8 6 5 4 3 2 2 1 1 1 2 2 3 3 3 3 2 2 3 4 4 3 2 3 3 2 2 3 5 4 4 3 2 2 2
11 9 8 7 8 8 8 8 8 7 5 5 4 4 4 3 3 2 1 1 1 2 2 2 2 2 2 2 2 2 2 2 3 2 3 2 1 3 4 3 3 3 2
8 8 8 7 8 8 7 8 8 7 5 6 5 5 3 2 2 1 1 1 1 1 1 2 2 2 1 1 2 1 1 1 2 2 1 1 3 1 2 4 4 3 2
9 9 9 8 7 7 7 7 7 6 5 5 6 6 4 2 1 0 0 1 1 1 0 1 2 1 1 1 2 2 2 1 1 0 1 1 1 1 2 2 4 4 3
8 7 6 7 6 5 6 6 7 5 5 5 5 6 5 4 2 1 1 1 1 2 2 0 0 0 1 1 1 1 2 1 1 0 1 1 1 1 1 1 1 2 3
8 8 7 7 7 6 6 6 6 5 4 5 4 5 5 5 4 3 2 1 1 1 2 1 1 1 1 1 1 1 1 1 1 0 1 1 1 2 2 2 1 1 2
8 8 8 8 7 7 6 6 6 4 4 4 4 4 4 3 3 3 3 3 2 3 2 2 1 1 1 0 0 0 1 1 1 1 1 1 1 1 2 2 2 0 2
8 8 7 7 6 6 6 6 6 5 4 4 3 3 3 3 3 3 2 2 2 2 2 2 1 1 1 1 0 1 1 1 1 1 1 1 1 0 1 2 3 3 1
7 7 6 5 5 5 4 4 5 4 3 3 3 3 2 2 2 2 1 2 2 1 1 1 1 1 1 1 0 1 1 1 2 1 1 1 1 1 1 1 2 3 3
8 7 6 5 5 5 5 4 4 3 3 3 2 3 2 1 1 1 1 1 1 1 2 2 1 2 1 1 1 2 1 1 2 2 1 2 2 1 1 1 1 2 3
8 7 6 5 5 5 4 4 4 3 3 3 3 3 2 2 2 0 1 1 1 1 1 1 1 1 1 1 1 2 2 1 2 3 2 3 2 2 2 1 1 2 2
8 7 6 5 5 4 4 4 3 3 3 3 3 2 2 2 1 0 1 1 1 1 1 1 0 1 1 1 1 1 1 1 2 2 2 3 2 2 2 2 2 2 2
8 7 6 5 5 5 5 4 3 3 4 4 4 3 1 1 0 1 1 2 1 2 1 1 0 1 1 1 1 1 1 2 2 2 2 2 2 3 3 2 3 3 2
8 8 7 5 5 5 4 4 3 3 4 4 4 1 1 1 1 1 1 2 2 2 1 1 2 1 1 1 1 1 1 2 3 3 3 3 3 3 2 2 2 2 2
9 8 7 6 5 5 5 4 4 3 4 4 3 2 2 2 2 1 1 2 3 3 2 2 2 2 2 2 1 1 1 2 2 4 4 4 4 5 5 4 3 2 3
9 9 7 7 6 5 5 5 4 3 4 4 2 2 2 2 2 2 3 2 3 2 2 3 2 3 4 4 3 2 1 2 3 3 4 4 4 4 4 5 5 5 6
9 8 7 6 5 4 4 4 4 5 4 3 2 2 2 2 2 3 2 2 2 2 2 3 3 3 4 5 4 3 1 2 3 3 4 4 5 5 4 4 4 5 5
9 7 7 6 5 5 5 6 5 4 4 2 1 0 1 1 2 2 2 2 2 2 2 2 3 3 5 6 5 3 1 2 4 4 4 4 5 7 6 3 5 6 6
8 7 7 6 6 4 5 6 5 4 2 2 1 1 1 1 0 1 1 1 1 2 3 3 3 3 4 6 6 3 1 2 4 4 5 6 7 8 6 4 5 7 7
8 8 8 6 5 5 6 6 4 3 3 2 1 0 0 1 1 1 1 1 2 2 3 4 4 4 5 7 7 5 1 3 4 4 5 5 10 10 9 7 5 9 8
8 8 8 6 4 5 6 5 3 3 1 1 1 0 1 1 1 0 1 2 2 2 3 4 5 5 5 6 7 7 6 5 4 5 5 6 11 11 11 8 9 11 8
8 7 7 6 4 4 6 5 3 2 2 2 1 0 1 1 1 0 1 2 2 2 3 3 4 5 5 6 9 8 9 8 5 6 9 11 12 11 9 10 12 9 5
7 6 7 6 4 3 4 4 3 3 3 2 0 1 1 2 2 1 1 1 2 3 3 4 5 5 5 5 5 5 6 7 6 6 9 11 11 9 9 9 8 6 6
5 6 7 6 5 4 3 3 3 4 3 2 0 1 1 1 2 2 3 3 4 4 5 5 5 5 6 8 9 7 5 5 6 6 4 4 4 5 5 6 6 5 5
5 5 5 5 4 4 3 2 3 4 4 2 1 1 1 1 2 2 4 5 6 8 9 8 7 7 9 12 11 11 11 10 9 5 4 6 6 6 7 7 7 6 6
Wind_Direction
171 161 153 153 147 144 143 146 143 146 130 115 112 106 104 91 60 74 95 92 81 72 66 48 31 30 38 21 15 24 22 10 12 36 8 354 357 8 10 1 9 18 23
143 148 148 152 152 157 156 153 151 150 145 146 142 142 138 140 119 45 58 76 83 72 69 62 41 30 32 23 22 38 28 3 23 69 55 7 353 352 1 2 14 9 17
160 158 151 152 150 154 162 161 161 156 152 140 112 87 66 49 34 24 359 345 62 72 69 65 62 39 50 25 9 40 61 14 355 54 112 103 312 323 336 350 0 1 7
153 156 152 155 159 164 162 155 154 152 148 136 133 133 134 148 209 221 257 307 23 67 80 75 71 57 47 25 351 53 85 85 8 350 24 152 169 133 335 337 343 351 357
160 162 162 163 161 158 155 156 151 154 150 142 146 140 142 168 188 117 46 347 337 328 358 75 76 59 30 9 7 19 47 92 114 17 349 30 55 107 139 315 332 345 334
166 159 152 145 146 143 141 146 147 155 152 145 148 150 154 154 142 137 184 309 325 323 315 41 74 31 13 2 3 15 40 56 96 113 127 139 141 205 152 203 293 319 315
161 153 147 149 150 146 144 144 144 149 153 150 158 163 163 163 171 187 196 212 274 283 273 271 261 263 273 291 24 35 18 17 22 293 221 201 210 192 166 157 227 307 312
160 159 160 158 158 155 149 143 146 153 160 158 169 175 171 171 187 194 193 205 216 233 238 231 242 251 272 285 95 9 322 345 340 341 329 280 267 191 173 170 154 30 332
160 160 159 157 157 157 158 155 153 156 162 163 155 160 171 182 193 198 192 209 226 230 222 227 237 248 266 256 162 319 305 333 331 321 337 330 295 265 199 175 163 158 202
153 152 149 150 149 147 143 140 147 157 157 153 158 153 164 173 178 165 198 229 243 233 211 241 247 246 259 262 239 293 298 330 315 300 328 323 297 297 272 198 176 167 174
154 152 152 154 143 128 123 126 132 129 137 148 140 129 141 134 118 124 219 243 255 234 220 232 234 240 261 276 257 278 291 312 314 319 311 296 289 294 294 268 200 183 172
148 145 143 135 126 129 130 129 132 138 149 141 125 133 128 106 92 76 292 280 273 272 245 243 258 271 292 301 243 286 292 284 292 301 312 300 295 286 280 257 245 230 203
139 133 127 128 130 130 126 125 130 134 125 113 107 101 95 92 85 340 319 341 345 356 10 54 37 299 308 313 287 293 313 299 280 278 273 285 290 283 277 257 248 245 232
143 138 136 137 136 133 130 126 121 117 110 102 98 93 87 102 123 0 7 5 7 19 11 24 18 310 304 313 313 322 323 324 309 292 271 271 250 249 257 259 254 247 242
147 149 149 147 139 133 131 126 123 116 109 100 89 78 43 40 43 26 11 9 16 14 10 20 3 344 336 327 321 312 319 321 321 316 297 281 279 268 252 254 248 235 238
153 152 148 146 146 146 142 134 128 125 112 107 101 77 56 44 34 20 20 17 5 357 6 359 342 337 346 336 328 334 304 305 306 305 303 297 291 295 286 279 261 225 221
158 157 157 157 162 165 156 150 146 121 109 105 90 71 60 43 22 24 34 13 356 0 351 338 334 320 313 333 344 344 337 304 293 291 297 306 310 304 292 292 288 269 254
160 160 157 156 158 148 139 135 120 115 113 105 89 70 64 42 25 30 18 349 347 349 330 323 321 312 315 324 325 330 348 326 310 296 281 281 291 297 289 280 286 280 273
157 155 153 145 137 135 135 122 113 112 108 111 115 107 92 63 33 9 330 319 337 331 315 312 315 308 305 319 323 336 326 308 305 306 300 290 284 298 300 281 277 283 284
140 139 135 124 127 136 129 118 120 121 148 193 206 201 157 145 201 292 300 313 315 304 314 317 311 298 292 306 314 318 273 292 300 304 301 295 296 300 298 278 268 274 279
137 135 131 131 142 142 126 123 131 166 208 208 197 231 261 232 231 278 315 325 322 331 330 319 311 304 294 300 305 304 265 264 285 295 294 293 300 299 293 280 258 264 274
133 134 133 135 138 136 131 133 166 205 186 144 119 344 311 308 360 349 324 331 336 331 323 318 314 307 301 290 294 295 282 275 260 272 274 280 291 293 295 287 276 279 283
141 137 137 138 141 145 141 149 192 181 146 122 108 348 345 334 333 261 301 321 327 316 307 308 303 303 303 300 297 295 294 285 269 267 275 282 286 290 290 284 282 282 267
145 140 139 142 153 163 158 169 173 149 133 131 176 303 341 330 326 298 269 280 291 297 298 296 291 293 298 296 291 283 286 285 285 284 287 289 285 280 278 286 284 267 253
148 148 152 159 171 172 169 174 158 134 128 136 177 298 302 280 291 292 274 265 256 253 268 270 271 280 289 284 283 284 279 276 274 289 292 293 293 287 283 281 277 269 265
140 144 152 160 171 170 175 185 171 152 148 157 207 245 275 288 292 302 313 297 284 290 287 284 286 282 279 291 294 289 284 284 286 290 282 282 278 275 276 276 277 271 265
Height
1515 1518 1520 1522 1525 1527 1528 1530 1531 1531 1532 1532 1532 1532 1532 1532 1532 1531 1530 1530 1528 1527 1526 1525 1523 1522 1521 1520 1519 1518 1517 1516 1516 1516 1515 1515 1515 1516 1516 1516 1516 1516 1517
1514 1517 1520 1522 1524 1526 1528 1529 1530 1531 1531 1532 1532 1532 1532 1532 1532 1531 1530 1530 1529 1527 1526 1525 1524 1522 1521 1520 1519 1518 1517 1517 1517 1516 1516 1516 1517 1516 1516 1516 1516 1516 1517
1512 1515 1518 1521 1523 1525 1527 1528 1529 1530 1531 1531 1532 1532 1532 1532 1532 1531 1530 1530 1529 1528 1527 1525 1524 1523 1522 1520 1519 1518 1518 1517 1517 1517 1517 1517 1516 1516 1516 1516 1516 1516 1517
1512 1514 1517 1520 1522 1524 1526 1527 1528 1530 1530 1531 1531 1532 1532 1531 1531 1531 1530 1530 1529 1528 1527 1526 1525 1523 1522 1521 1520 1519 1518 1518 1517 1517 1517 1517 1517 1517 1517 1517 1516 1516 1516
1512 1514 1516 1519 1521 1523 1525 1527 1528 1529 1530 1530 1531 1531 1531 1531 1531 1531 1530 1530 1529 1528 1527 1526 1525 1523 1522 1521 1520 1519 1519 1518 1518 1517 1517 1517 1517 1517 1517 1516 1516 1516 1516
1511 1514 1516 1519 1521 1523 1524 1526 1527 1528 1529 1530 1530 1531 1531 1531 1531 1531 1530 1530 1529 1528 1527 1526 1525 1524 1523 1521 1520 1519 1519 1518 1517 1517 1517 1517 1517 1517 1517 1516 1516 1516 1516
1510 1513 1515 1517 1519 1521 1523 1525 1526 1527 1528 1529 1530 1530 1531 1531 1530 1530 1530 1530 1529 1528 1527 1526 1525 1524 1523 1522 1521 1520 1519 1518 1517 1517 1516 1516 1516 1516 1516 1516 1516 1516 1516
1509 1511 1514 1516 1519 1520 1522 1524 1525 1526 1527 1528 1529 1529 1530 1530 1530 1530 1530 1529 1529 1528 1527 1526 1526 1524 1523 1522 1521 1520 1519 1518 1517 1516 1516 1516 1516 1516 1516 1516 1516 1515 1516
1508 1511 1513 1515 1518 1520 1521 1523 1524 1525 1526 1527 1528 1528 1529 1529 1529 1529 1529 1529 1529 1528 1527 1526 1526 1524 1523 1522 1521 1520 1519 1518 1517 1516 1516 1515 1515 1515 1515 1515 1516 1516 1515
1508 1510 1512 1515 1517 1519 1521 1522 1523 1524 1525 1526 1527 1527 1528 1528 1529 1529 1529 1528 1528 1527 1527 1526 1525 1524 1523 1522 1521 1520 1519 1518 1517 1516 1516 1515 1515 1515 1515 1515 1515 1515 1515
1506 1509 1512 1514 1516 1518 1520 1521 1522 1523 1524 1525 1526 1526 1527 1527 1528 1528 1528 1527 1527 1527 1526 1525 1524 1523 1523 1522 1521 1520 1519 1518 1517 1516 1515 1515 1514 1514 1514 1514 1513 1513 1513
1506 1509 1511 1514 1516 1517 1519 1520 1521 1522 1523 1524 1525 1525 1526 1526 1526 1526 1526 1526 1526 1525 1525 1524 1523 1523 1522 1521 1520 1519 1518 1517 1516 1515 1515 1514 1513 1513 1512 1512 1512 1512 1512
1506 1509 1511 1513 1515 1517 1518 1520 1521 1521 1523 1523 1524 1524 1525 1525 1525 1525 1525 1524 1524 1524 1523 1522 1522 1521 1520 1520 1519 1518 1517 1516 1515 1514 1513 1513 1512 1511 1511 1511 1510 1510 1510
1505 1508 1510 1513 1515 1516 1518 1519 1520 1521 1522 1522 1523 1523 1523 1524 1524 1524 1523 1523 1523 1522 1522 1521 1520 1520 1519 1518 1517 1517 1516 1515 1514 1513 1512 1511 1510 1510 1509 1509 1508 1508 1508
1505 1507 1510 1512 1514 1516 1517 1518 1519 1520 1521 1522 1522 1522 1523 1523 1522 1522 1522 1521 1521 1520 1520 1519 1519 1518 1517 1516 1515 1515 1514 1513 1512 1511 1510 1510 1509 1508 1507 1507 1506 1506 1505
1504 1507 1509 1511 1513 1515 1516 1518 1519 1520 1520 1521 1521 1521 1521 1521 1521 1521 1520 1520 1519 1519 1518 1517 1517 1516 1515 1514 1513 1513 1512 1511 1510 1509 1508 1507 1507 1506 1505 1504 1504 1503 1503
1503 1506 1508 1510 1512 1514 1515 1517 1518 1519 1519 1520 1520 1520 1520 1520 1520 1519 1519 1518 1517 1517 1516 1515 1515 1514 1513 1512 1511 1510 1509 1508 1507 1506 1505 1504 1504 1503 1502 1501 1500 1500 1499
1502 1504 1507 1509 1512 1513 1515 1516 1517 1518 1518 1519 1519 1519 1519 1518 1518 1518 1517 1516 1516 1515 1514 1513 1512 1511 1511 1510 1509 1508 1507 1506 1505 1504 1502 1501 1500 1499 1498 1497 1496 1496 1495
1500 1503 1506 1508 1510 1512 1514 1515 1516 1517 1517 1517 1517 1517 1517 1517 1516 1516 1515 1514 1514 1513 1512 1511 1510 1509 1508 1507 1506 1505 1504 1503 1502 1501 1500 1498 1497 1496 1494 1493 1492 1491 1491
1500 1503 1505 1507 1509 1511 1512 1513 1514 1515 1515 1516 1516 1516 1516 1515 1515 1514 1513 1512 1512 1511 1510 1508 1507 1506 1505 1504 1503 1502 1501 1499 1498 1497 1496 1495 1494 1492 1491 1489 1488 1486 1485
1499 1502 1504 1506 1508 1509 1511 1511 1512 1513 1514 1514 1514 1514 1514 1513 1513 1512 1511 1510 1509 1508 1507 1506 1505 1503 1502 1501 1500 1499 1497 1496 1494 1493 1492 1491 1489 1488 1487 1485 1484 1482 1481
1497 1500 1502 1504 1506 1508 1509 1509 1510 1511 1512 1512 1512 1512 1512 1511 1511 1510 1509 1508 1507 1505 1504 1502 1501 1500 1499 1497 1496 1495 1494 1492 1491 1489 1487 1486 1485 1483 1482 1480 1479 1477 1476
1496 1499 1501 1503 1505 1506 1507 1508 1509 1510 1510 1510 1510 1510 1509 1509 1508 1507 1506 1505 1504 1502 1501 1499 1497 1496 1495 1493 1492 1491 1490 1488 1486 1484 1483 1481 1480 1478 1476 1475 1473 1472 1470
1495 1497 1499 1501 1502 1504 1505 1506 1507 1507 1508 1508 1508 1507 1507 1506 1506 1505 1504 1502 1501 1499 1498 1496 1494 1492 1490 1489 1487 1486 1484 1482 1481 1479 1477 1476 1474 1472 1471 1469 1467 1466 1464
1493 1495 1497 1499 1500 1502 1503 1504 1505 1505 1505 1505 1505 1504 1504 1503 1502 1501 1500 1499 1498 1497 1495 1492 1491 1488 1485 1484 1483 1481 1479 1477 1475 1473 1471 1469 1467 1465 1464 1462 1461 1459 1458
1491 1494 1496 1497 1499 1500 1501 1501 1502 1503 1503 1502 1502 1501 1501 1500 1499 1498 1497 1495 1495 1493 1491 1489 1487 1484 1482 1479 1477 1476 1474 1472 1470 1468 1465 1463 1461 1459 1457 1456 1454 1452 1451